Location: Hamilton
(37.7830°S, 175.2830°E)
Time: 04:54:10
(UTC+13:00)

Cosmos 2360 Rocket - Pass Details

Date: 24 January 2019
Orbit: 834 x 845 km, 71.0° (Epoch: 18 February)

Event Time Altitude Azimuth Distance (km) Brightness Sun altitude
Exits shadow 22:43:37 - 336° (NNW) 2,668 4.6 -20.8°
Reaches altitude 10° 22:44:08 10° 336° (NNW) 2,468 4.4 -20.8°
Maximum altitude 22:49:50 82° 247° (WSW) 867 2.2 -21.6°
Drops below altitude 10° 22:55:35 10° 160° (SSE) 2,495 5.0 -22.3°
Sets 22:58:03 0° 158° (SSE) 3,435 5.8 -22.6°
